User: anonymous   Login
Location: Unspecified
(0.0000°N, 0.0000°E)
Time: 16:34:35
(UTC+00:00)
Language:

UHF F/O F4 - Orbit

View from above orbital plane
View from above orbital plane
View from above satellite
View from above satellite

Ground track
Ground track

The orbit data is extracted from the following two-line orbital elements,

1 23467U 95003A   17169.61197620 0.00000000  00000-0  00000-0 0    08
2 23467   9.6425  27.4836 0010009   9.3572 350.6866  1.00270000    00
Epoch (UTC): 18 June 2017 14:41:14
Eccentricity: 0.0010009
inclination: 9.6425°
perigee height: 35744 km
apogee height: 35829 km
right ascension of ascending node: 27.4836°
argument of perigee: 9.3572°
revolutions per day: 1.00270000
mean anomaly at epoch: 350.6866°
orbit number at epoch: 0

The dashed part of the orbit path shows where the satellite is in the earth's shadow,  

DLR